TimeCST,TemperatureF,Dew PointF,Humidity,Sea Level PressureIn,VisibilityMPH,Wind Direction,Wind SpeedMPH,Gust SpeedMPH,PrecipitationIn,Events,Conditions,WindDirDegrees,DateUTC
12:15 AM,47.5,39.4,73,30.45,7.0,NNE,3.5,-,N/A,,Clear,20,2013-01-18 06:15:00
12:35 AM,47.5,39.4,73,30.46,7.0,Calm,Calm,-,N/A,,Clear,0,2013-01-18 06:35:00
12:55 AM,48.0,39.2,72,30.46,7.0,Calm,Calm,-,N/A,,Clear,0,2013-01-18 06:55:00
1:15 AM,49.1,38.7,67,30.46,7.0,North,4.6,-,N/A,,Clear,360,2013-01-18 07:15:00
1:35 AM,46.4,39.2,76,30.45,7.0,North,3.5,-,N/A,,Clear,360,2013-01-18 07:35:00
1:55 AM,47.5,38.5,71,30.45,7.0,North,3.5,-,N/A,,Clear,350,2013-01-18 07:55:00
2:15 AM,46.0,38.1,74,30.46,7.0,NW,4.6,-,N/A,,Clear,320,2013-01-18 08:15:00
2:35 AM,44.4,37.6,77,30.46,7.0,NW,5.8,-,N/A,,Clear,320,2013-01-18 08:35:00
2:55 AM,44.1,37.4,77,30.46,7.0,NW,3.5,-,N/A,,Clear,310,2013-01-18 08:55:00
3:15 AM,43.7,36.9,77,30.46,7.0,NW,4.6,-,N/A,,Clear,310,2013-01-18 09:15:00
3:35 AM,43.0,36.7,78,30.46,7.0,NW,4.6,-,N/A,,Clear,310,2013-01-18 09:35:00
3:55 AM,42.8,36.3,78,30.46,7.0,NNW,5.8,-,N/A,,Clear,330,2013-01-18 09:55:00
4:15 AM,42.1,36.3,80,30.46,7.0,Calm,Calm,-,N/A,,Clear,0,2013-01-18 10:15:00
4:35 AM,42.3,36.0,78,30.46,7.0,Calm,Calm,-,N/A,,Clear,0,2013-01-18 10:35:00
4:55 AM,41.4,35.8,81,30.46,7.0,West,3.5,-,N/A,,Clear,260,2013-01-18 10:55:00
5:15 AM,41.4,35.8,81,30.45,10.0,Calm,Calm,-,N/A,,Clear,0,2013-01-18 11:15:00
5:35 AM,41.5,36.0,81,30.45,7.0,Calm,Calm,-,N/A,,Clear,0,2013-01-18 11:35:00
5:55 AM,41.0,35.6,81,30.46,7.0,Calm,Calm,-,N/A,,Clear,0,2013-01-18 11:55:00
6:15 AM,41.0,35.1,79,30.46,7.0,WNW,3.5,-,N/A,,Clear,300,2013-01-18 12:15:00
6:35 AM,40.6,35.1,80,30.46,7.0,WNW,4.6,-,N/A,,Clear,290,2013-01-18 12:35:00
6:55 AM,40.6,35.4,82,30.47,7.0,NW,6.9,-,N/A,,Clear,310,2013-01-18 12:55:00
7:15 AM,40.1,35.1,82,30.47,7.0,NW,4.6,-,N/A,,Clear,310,2013-01-18 13:15:00
7:35 AM,40.3,35.1,82,30.48,5.0,NW,4.6,-,N/A,,Haze,320,2013-01-18 13:35:00
7:55 AM,42.3,36.5,80,30.49,5.0,NW,4.6,-,N/A,,Haze,320,2013-01-18 13:55:00
8:15 AM,45.0,36.9,73,30.49,5.0,NNW,4.6,-,N/A,,Haze,330,2013-01-18 14:15:00
8:35 AM,48.0,38.3,69,30.49,5.0,NNW,4.6,-,N/A,,Haze,330,2013-01-18 14:35:00
8:55 AM,50.5,38.7,64,30.50,5.0,North,4.6,-,N/A,,Haze,350,2013-01-18 14:55:00
9:15 AM,54.0,37.9,55,30.50,5.0,North,5.8,-,N/A,,Haze,10,2013-01-18 15:15:00
10:35 AM,63.1,40.5,43,30.50,4.0,NE,3.5,-,N/A,,Haze,50,2013-01-18 16:35:00
10:55 AM,64.2,39.9,41,30.49,7.0,NE,6.9,-,N/A,,Clear,50,2013-01-18 16:55:00
11:15 AM,66.4,40.5,39,30.48,5.0,NE,3.5,-,N/A,,Haze,40,2013-01-18 17:15:00
11:35 AM,66.7,40.3,38,30.47,5.0,ESE,3.5,-,N/A,,Haze,120,2013-01-18 17:35:00
11:55 AM,67.3,37.8,34,30.46,5.0,Calm,Calm,-,N/A,,Haze,0,2013-01-18 17:55:00
12:15 PM,67.5,37.9,34,30.44,7.0,Calm,Calm,-,N/A,,Clear,0,2013-01-18 18:15:00
12:35 PM,67.8,37.6,33,30.43,7.0,ENE,5.8,-,N/A,,Clear,70,2013-01-18 18:35:00
12:55 PM,68.7,37.6,32,30.41,5.0,East,8.1,-,N/A,,Haze,100,2013-01-18 18:55:00
1:15 PM,68.9,37.4,32,30.40,7.0,Calm,Calm,-,N/A,,Scattered Clouds,0,2013-01-18 19:15:00
1:35 PM,68.4,36.5,31,30.38,5.0,Calm,Calm,-,N/A,,Haze,0,2013-01-18 19:35:00
1:55 PM,69.4,37.4,31,30.37,7.0,East,5.8,-,N/A,,Scattered Clouds,80,2013-01-18 19:55:00
2:15 PM,70.0,37.0,30,30.36,7.0,East,4.6,-,N/A,,Scattered Clouds,80,2013-01-18 20:15:00
2:35 PM,70.0,37.0,30,30.36,7.0,ESE,6.9,-,N/A,,Scattered Clouds,110,2013-01-18 20:35:00
2:55 PM,70.7,36.1,28,30.35,7.0,ENE,4.6,9.2,N/A,,Scattered Clouds,60,2013-01-18 20:55:00
3:15 PM,69.4,35.6,29,30.34,7.0,SE,6.9,-,N/A,,Clear,130,2013-01-18 21:15:00
3:35 PM,70.0,36.1,29,30.34,7.0,East,4.6,-,N/A,,Clear,100,2013-01-18 21:35:00
3:55 PM,70.2,36.1,29,30.33,7.0,East,5.8,-,N/A,,Clear,80,2013-01-18 21:55:00
4:15 PM,70.0,36.3,29,30.33,7.0,Calm,Calm,-,N/A,,Clear,0,2013-01-18 22:15:00
4:35 PM,70.0,36.0,29,30.33,7.0,SSE,3.5,-,N/A,,Clear,160,2013-01-18 22:35:00
4:55 PM,69.4,36.3,30,30.33,10.0,South,3.5,-,N/A,,Clear,190,2013-01-18 22:55:00
5:15 PM,69.1,37.0,31,30.33,7.0,Calm,Calm,-,N/A,,Scattered Clouds,0,2013-01-18 23:15:00
5:35 PM,66.4,37.0,34,30.34,7.0,ESE,4.6,-,N/A,,Clear,120,2013-01-18 23:35:00
6:15 PM,62.1,39.7,44,30.34,7.0,SSE,4.6,-,N/A,,Clear,150,2013-01-19 00:15:00
7:15 PM,59.4,42.3,53,30.36,7.0,SE,6.9,-,N/A,,Clear,130,2013-01-19 01:15:00
7:35 PM,58.5,43.0,56,30.36,7.0,SE,5.8,-,N/A,,Clear,130,2013-01-19 01:35:00
8:15 PM,56.7,44.6,64,30.37,7.0,SE,5.8,-,N/A,,Clear,140,2013-01-19 02:15:00
8:35 PM,55.8,44.8,67,30.37,7.0,ESE,5.8,-,N/A,,Clear,120,2013-01-19 02:35:00
8:55 PM,55.0,44.6,68,30.36,7.0,ESE,5.8,-,N/A,,Clear,120,2013-01-19 02:55:00
9:15 PM,53.2,43.9,71,30.36,7.0,SE,5.8,-,N/A,,Clear,130,2013-01-19 03:15:00
9:35 PM,54.5,44.8,70,30.36,10.0,SE,4.6,-,N/A,,Clear,140,2013-01-19 03:35:00
9:55 PM,53.8,44.4,71,30.35,7.0,SE,4.6,-,N/A,,Clear,130,2013-01-19 03:55:00
10:15 PM,53.6,44.6,72,30.35,7.0,ESE,4.6,-,N/A,,Clear,110,2013-01-19 04:15:00
10:35 PM,53.4,44.8,73,30.34,10.0,SE,3.5,-,N/A,,Clear,130,2013-01-19 04:35:00
10:55 PM,53.6,44.8,72,30.34,7.0,Calm,Calm,-,N/A,,Clear,0,2013-01-19 04:55:00
11:15 PM,53.2,45.1,74,30.33,7.0,Calm,Calm,-,N/A,,Clear,0,2013-01-19 05:15:00
11:35 PM,52.7,44.6,74,30.33,7.0,Calm,Calm,-,N/A,,Clear,0,2013-01-19 05:35:00
11:55 PM,50.7,43.9,77,30.31,7.0,Calm,Calm,-,N/A,,Clear,0,2013-01-19 05:55:00